TimeCST,TemperatureF,Dew PointF,Humidity,Sea Level PressureIn,VisibilityMPH,Wind Direction,Wind SpeedMPH,Gust SpeedMPH,PrecipitationIn,Events,Conditions,WindDirDegrees,DateUTC
12:53 AM,34.0,28.9,82,30.25,10.0,South,11.5,-,N/A,,Clear,170,2013-11-20 06:53:00
1:53 AM,34.0,28.9,82,30.25,10.0,SSE,11.5,-,N/A,,Clear,160,2013-11-20 07:53:00
2:53 AM,34.0,28.0,79,30.26,10.0,South,11.5,-,N/A,,Clear,170,2013-11-20 08:53:00
3:53 AM,34.0,27.0,75,30.25,10.0,South,11.5,-,N/A,,Scattered Clouds,170,2013-11-20 09:53:00
4:53 AM,33.1,27.0,78,30.26,10.0,South,10.4,-,N/A,,Clear,170,2013-11-20 10:53:00
5:53 AM,33.1,26.1,75,30.24,10.0,SSE,11.5,-,N/A,,Mostly Cloudy,160,2013-11-20 11:53:00
6:53 AM,33.1,26.1,75,30.23,10.0,SSE,12.7,20.7,N/A,,Scattered Clouds,160,2013-11-20 12:53:00
7:53 AM,35.1,27.0,72,30.23,9.0,South,12.7,-,N/A,,Mostly Cloudy,170,2013-11-20 13:53:00
8:53 AM,36.0,27.0,70,30.25,10.0,South,12.7,-,N/A,,Overcast,170,2013-11-20 14:53:00
9:53 AM,37.9,27.0,65,30.25,10.0,South,11.5,-,N/A,,Overcast,170,2013-11-20 15:53:00
10:53 AM,39.0,26.1,60,30.25,10.0,South,18.4,25.3,N/A,,Mostly Cloudy,180,2013-11-20 16:53:00
11:53 AM,39.9,26.1,58,30.21,10.0,SSE,12.7,19.6,N/A,,Overcast,160,2013-11-20 17:53:00
12:53 PM,41.0,26.1,55,30.17,10.0,South,10.4,-,N/A,,Overcast,170,2013-11-20 18:53:00
1:53 PM,42.1,23.0,47,30.14,10.0,SSE,12.7,-,N/A,,Overcast,160,2013-11-20 19:53:00
2:53 PM,42.1,25.0,51,30.11,10.0,SE,6.9,-,N/A,,Overcast,140,2013-11-20 20:53:00
3:53 PM,41.0,28.9,62,30.13,10.0,SE,8.1,-,N/A,,Overcast,140,2013-11-20 21:53:00
4:53 PM,39.0,28.9,67,30.14,10.0,SE,9.2,-,N/A,,Overcast,140,2013-11-20 22:53:00
5:53 PM,39.0,30.0,70,30.15,10.0,SE,8.1,-,N/A,,Overcast,140,2013-11-20 23:53:00
6:53 PM,39.0,30.0,70,30.15,10.0,SE,6.9,-,N/A,,Overcast,140,2013-11-21 00:53:00
7:53 PM,39.0,30.0,70,30.14,10.0,SSE,4.6,-,N/A,,Overcast,160,2013-11-21 01:53:00
8:53 PM,37.9,30.0,73,30.14,10.0,South,4.6,-,N/A,,Overcast,180,2013-11-21 02:53:00
9:53 PM,37.9,32.0,79,30.14,8.0,South,17.3,20.7,0.00,Rain,Light Rain,180,2013-11-21 03:53:00
10:53 PM,37.0,33.1,86,30.14,6.0,South,11.5,-,0.01,,Overcast,180,2013-11-21 04:53:00
11:53 PM,37.0,33.1,86,30.14,6.0,South,10.4,-,0.00,,Overcast,180,2013-11-21 05:53:00